Location: Brownlee
(50.7397°N, 106.0159°W)
Time: 08:06:03
(UTC+00:00)

Envisat - Pass Details

Date: 09 December 2022
Orbit: 763 x 765 km, 98.2° (Epoch: 04 February)

Event Time Altitude Azimuth Distance (km) Brightness Sun altitude
Rises 23:35:28 0° 208° (SSW) 3,221 7.3 -5.7°
Reaches altitude 10° 23:38:24 10° 226° (SW) 2,301 7.0 -6.1°
Maximum altitude 23:41:59 19° 271° (W) 1,755 5.8 -6.6°
Drops below altitude 10° 23:45:36 10° 316° (NW) 2,314 5.7 -7.1°
Sets 23:48:35 0° 334° (NNW) 3,246 6.2 -7.5°
